User: anonymous   Login
Location: Unspecified
(0.0000°N, 0.0000°E)
Time: 16:41:04
(UTC+01:00)
Language:

ASC 2 Rocket - Orbit

View from above orbital plane
View from above orbital plane
View from above satellite
View from above satellite

Ground track
Ground track

The orbit data is extracted from the following two-line orbital elements,

1 21228U 91028B   18021.86208705  .00000184  00000-0  12626-4 0  9997
2 21228  23.9961 146.3728 1143040 332.4896 228.5283 12.53351247225233
Epoch (UTC): 21 January 2018 20:41:24
Eccentricity: 0.1143040
inclination: 23.9961°
perigee height: 555 km
apogee height: 2345 km
right ascension of ascending node: 146.3728°
argument of perigee: 332.4896°
revolutions per day: 12.53351247
mean anomaly at epoch: 228.5283°
orbit number at epoch: 22523

The dashed part of the orbit path shows where the satellite is in the earth's shadow,  

DLR